Waarnemingen

Advertentie
Mijn weer
Colmar, Frankrijk (7197): temperatuur & dauwpunt: 18.07.2019 01:00:00 - 24.07.2019 01:00:00 (CEST)Colmar, Frankrijk (7197): temperatuur 5cm: 18.07.2019 01:00:00 - 24.07.2019 01:00:00 (CEST)Colmar, Frankrijk (7197): temperatuur -20cm & temperatuur -100cm: 18.07.2019 01:00:00 - 24.07.2019 01:00:00 (CEST)Colmar, Frankrijk (7197): windsnelheid & windstoten: 18.07.2019 01:00:00 - 24.07.2019 01:00:00 (CEST)Colmar, Frankrijk (7197): windrichting: 18.07.2019 01:00:00 - 24.07.2019 01:00:00 (CEST)Colmar, Frankrijk (7197): luchtdruk: 18.07.2019 01:00:00 - 24.07.2019 01:00:00 (CEST)Colmar, Frankrijk (7197): zicht: 18.07.2019 01:00:00 - 24.07.2019 01:00:00 (CEST)Colmar, Frankrijk (7197): Zonneschijnduur: 18.07.2019 01:00:00 - 24.07.2019 01:00:00 (CEST)Colmar, Frankrijk (7197): neerslag: 18.07.2019 01:00:00 - 24.07.2019 01:00:00 (CEST)
Datum & Tijd tt [°C] td [°C] tt 5cm [°C] tt -20cm [°C] tt -100cm [°C] ff [km/u] ff [kn] fx [km/u] fx [kn] dd ppp [hPa] vv [km] sd [min] rr [mm]
24.07.2019 01:00:00 - - - - - - - - - - - - - -
24.07.2019 00:00:00 21,6 17,2 18,9 31,4 22,6 0 0 0 0 N 1016,2 20 0 0,0
23.07.2019 23:00:00 23,3 17,5 20,6 31,7 22,6 0 0 4 2 N 1016,1 20 0 0,0
23.07.2019 22:00:00 25,6 18,8 22,1 31,9 22,6 3 2 5 3 N 1015,9 20 0 0,0
23.07.2019 21:00:00 30,0 18,1 29,6 32,0 22,6 4 2 13 7 NNO 1015,2 20 51 0,0
23.07.2019 20:00:00 33,1 17,3 34,6 31,8 22,6 8 4 11 6 N 1014,8 20 60 0,0
23.07.2019 19:00:00 34,6 14,0 37,3 31,5 22,6 7 4 13 7 N 1015,0 20 60 0,0
23.07.2019 18:00:00 35,0 13,2 39,6 30,9 22,6 6 3 13 7 NO 1015,5 20 60 0,0
23.07.2019 17:00:00 34,7 13,5 40,7 30,2 22,6 9 5 18 10 NNO 1015,9 20 60 0,0
23.07.2019 16:00:00 34,7 12,4 39,4 29,4 22,6 8 5 17 9 O 1016,5 20 60 0,0
23.07.2019 15:00:00 33,7 15,7 38,8 28,4 22,6 8 4 16 9 N 1017,4 20 60 0,0
23.07.2019 14:00:00 32,1 16,4 37,0 27,6 22,6 9 5 19 10 NNW 1018,1 20 60 0,0
23.07.2019 13:00:00 31,0 16,2 35,0 26,8 22,6 10 6 17 9 N 1018,7 20 60 0,0
23.07.2019 12:00:00 29,2 16,4 30,6 26,2 22,6 7 4 14 8 N 1019,3 18 60 0,0
23.07.2019 11:00:00 27,0 14,7 27,4 25,9 22,6 10 5 16 9 N 1019,9 20 60 0,0
23.07.2019 10:00:00 25,2 14,3 24,9 25,8 22,5 9 5 13 7 N 1020,4 20 60 0,0
23.07.2019 09:00:00 23,0 15,3 23,1 26,0 22,6 6 3 11 6 N 1020,9 20 60 0,0
23.07.2019 08:00:00 21,0 15,3 18,1 26,3 22,5 2 1 5 3 NO 1021,2 20 60 0,0
23.07.2019 07:00:00 16,5 15,2 12,4 26,7 22,5 0 0 5 3 N 1021,4 20 39 0,0
23.07.2019 06:00:00 13,9 12,8 12,0 27,1 22,5 2 1 4 2 ZZW 1021,9 12 0 0,0
23.07.2019 05:00:00 14,7 13,6 12,5 27,5 22,5 2 1 5 3 NNW 1021,7 13 0 0,0
23.07.2019 04:00:00 15,5 14,2 12,8 27,9 22,5 0 0 8 4 N 1021,7 19 0 0,0
23.07.2019 03:00:00 16,1 14,8 13,4 28,4 22,5 3 1 6 3 ZZO 1021,7 20 0 0,0
23.07.2019 02:00:00 16,4 14,4 13,9 28,8 22,5 0 0 6 3 N 1021,9 20 0 0,0
23.07.2019 01:00:00 17,3 14,6 14,7 29,2 22,5 0 0 6 3 N 1022,0 20 0 0,0
23.07.2019 00:00:00 18,6 15,1 15,7 29,6 22,5 0 0 5 3 N 1022,1 20 0 0,0
22.07.2019 23:00:00 20,3 15,7 17,0 30,0 22,5 0 0 5 3 N 1021,9 20 0 0,0
22.07.2019 22:00:00 22,4 16,4 19,2 30,2 22,5 5 3 9 5 NNW 1021,7 20 0 0,0
22.07.2019 21:00:00 25,6 16,2 25,2 30,3 22,5 4 2 13 7 NNO 1021,2 20 20 0,0
22.07.2019 20:00:00 28,2 15,8 28,7 30,3 22,4 9 5 18 10 N 1020,9 20 36 0,0
22.07.2019 19:00:00 29,0 17,2 30,7 30,1 22,5 6 3 14 8 NNO 1020,7 20 17 0,0
22.07.2019 18:00:00 30,9 16,1 34,7 29,7 22,4 9 5 18 10 ONO 1020,9 20 43 0,0
22.07.2019 17:00:00 30,8 14,4 34,3 29,3 22,5 7 4 14 8 O 1021,3 20 21 0,0
22.07.2019 16:00:00 30,2 14,3 33,7 28,5 22,4 8 5 18 10 NO 1021,7 20 43 0,0
22.07.2019 15:00:00 30,5 15,4 34,3 27,9 22,5 10 5 18 10 N 1022,1 20 58 0,0
22.07.2019 14:00:00 29,2 15,0 30,6 27,2 22,4 10 6 21 11 N 1022,8 19 34 0,0
22.07.2019 13:00:00 28,0 15,6 30,7 26,6 22,5 11 6 18 10 N 1023,2 20 36 0,0
22.07.2019 12:00:00 28,7 15,2 32,0 26,0 22,4 9 5 17 9 N 1023,2 20 60 0,0
22.07.2019 11:00:00 26,9 15,3 26,7 25,8 22,4 7 4 14 8 ONO 1023,4 20 60 0,0
22.07.2019 10:00:00 24,7 14,2 25,3 25,7 22,4 8 4 14 7 N 1023,8 20 60 0,0
22.07.2019 09:00:00 22,9 15,2 22,7 25,8 22,4 4 2 8 4 NNO 1024,1 20 60 0,0
22.07.2019 08:00:00 20,5 15,7 18,5 26,1 22,4 3 1 6 3 W 1024,2 20 60 0,0
22.07.2019 07:00:00 16,5 15,2 12,5 26,5 22,4 0 0 3 2 N 1024,0 19 40 0,0
22.07.2019 06:00:00 14,7 13,4 12,6 26,9 22,4 2 1 5 3 ZZW 1023,9 20 0 0,0
22.07.2019 05:00:00 15,4 13,8 13,3 27,3 22,4 0 0 5 3 N 1023,7 20 0 0,0
22.07.2019 04:00:00 16,6 14,6 14,1 27,7 22,4 3 2 5 3 ZO 1023,4 20 0 0,0
22.07.2019 03:00:00 16,8 14,1 14,7 28,1 22,4 0 0 5 3 N 1023,3 20 0 0,0
22.07.2019 02:00:00 19,6 14,6 17,6 28,5 22,4 4 2 9 5 NNO 1023,0 20 0 0,0
22.07.2019 01:00:00 20,1 15,1 17,6 28,8 22,4 4 2 10 5 N 1022,8 20 0 0,0
22.07.2019 00:00:00 20,6 16,0 19,6 29,2 22,4 5 3 10 5 N 1022,7 20 0 0,0
21.07.2019 23:00:00 21,9 16,6 20,2 29,5 22,3 5 3 10 5 NNO 1022,2 20 0 0,0
21.07.2019 22:00:00 22,9 17,1 22,1 29,8 22,4 5 3 13 7 N 1021,6 20 0 0,0
21.07.2019 21:00:00 26,5 15,5 25,5 29,9 22,3 3 2 10 5 NO 1020,5 20 12 0,0
21.07.2019 20:00:00 28,9 15,1 29,9 29,8 22,3 8 4 14 8 ONO 1019,9 20 51 0,0
21.07.2019 19:00:00 29,6 15,0 31,5 29,7 22,3 9 5 21 11 NO 1019,7 20 47 0,0
21.07.2019 18:00:00 30,3 15,6 31,5 29,3 22,3 9 5 20 11 ONO 1019,5 20 26 0,0
21.07.2019 17:00:00 30,8 13,6 34,0 28,8 22,3 7 4 18 10 NNO 1019,6 20 51 0,0
21.07.2019 16:00:00 30,1 15,8 33,0 28,1 22,3 11 6 28 15 NW 1019,9 20 49 0,0
21.07.2019 15:00:00 30,7 15,9 32,7 27,4 22,3 13 7 31 17 WZW 1020,0 20 48 0,0
21.07.2019 14:00:00 30,0 14,1 32,7 26,9 22,3 16 8 30 16 ZZW 1020,1 9 58 0,0
21.07.2019 13:00:00 27,6 17,7 28,0 26,5 22,3 6 3 17 9 Z 1020,8 19 31 0,0
21.07.2019 12:00:00 26,9 18,5 26,6 26,3 22,3 7 4 18 10 Z 1020,8 19 27 0,0
21.07.2019 11:00:00 25,2 18,6 26,1 26,1 22,2 6 3 17 9 Z 1021,0 20 21 0,0
21.07.2019 10:00:00 24,2 19,5 23,4 26,1 22,2 5 3 11 6 ZZO 1020,8 19 56 0,0
21.07.2019 09:00:00 21,4 18,6 21,7 26,3 22,2 4 2 12 6 Z 1021,0 20 26 0,0
21.07.2019 08:00:00 20,5 19,0 19,1 26,6 22,2 5 3 10 5 ZZO 1020,3 20 34 0,0
21.07.2019 07:00:00 18,9 17,9 18,7 26,9 22,2 4 2 13 7 ZW 1020,1 14 0 0,0
21.07.2019 06:00:00 19,0 18,0 18,7 27,3 22,2 6 3 14 7 Z 1019,6 18 0 0,0
21.07.2019 05:00:00 19,0 18,0 18,7 27,7 22,2 9 5 16 9 ZZW 1019,2 16 0 0,2
21.07.2019 04:00:00 19,1 18,3 18,7 28,1 22,2 8 4 15 8 ZZO 1018,7 16 0 0,8
21.07.2019 03:00:00 19,6 17,9 18,8 28,5 22,2 5 3 17 9 ZO 1018,7 17 0 1,0
21.07.2019 02:00:00 20,7 17,9 18,7 28,8 22,2 5 3 18 10 ZZW 1017,8 9 0 0,6
21.07.2019 01:00:00 22,0 16,3 18,7 29,1 22,2 15 8 31 17 W 1016,5 20 0 0,2
21.07.2019 00:00:00 24,4 14,5 21,5 29,4 22,1 8 4 11 6 Z 1015,4 20 0 0,0
20.07.2019 23:00:00 25,2 14,0 23,8 29,7 22,2 7 4 13 7 ZZO 1014,9 20 0 0,0
20.07.2019 22:00:00 26,5 13,6 23,5 29,9 22,1 6 4 11 6 ZZO 1014,7 20 0 0,0
20.07.2019 21:00:00 27,8 12,6 25,4 30,0 22,1 5 3 8 4 ZW 1013,8 20 2 0,0
20.07.2019 20:00:00 29,7 12,2 29,7 29,9 22,1 2 1 14 8 W 1013,1 20 3 0,0
20.07.2019 19:00:00 30,2 12,1 31,2 29,8 22,1 9 5 29 16 W 1012,9 20 5 0,0
20.07.2019 18:00:00 32,2 10,8 34,1 29,4 22,1 20 11 42 23 WZW 1012,7 20 57 0,0
20.07.2019 17:00:00 32,6 11,7 32,3 29,0 22,1 21 11 37 20 ZW 1012,9 19 20 0,0
20.07.2019 16:00:00 31,5 11,3 33,1 28,3 22,1 22 12 44 24 ZW 1012,8 20 30 0,0
20.07.2019 15:00:00 33,0 11,5 34,6 27,6 22,1 23 13 39 21 WZW 1012,8 20 41 0,0
20.07.2019 14:00:00 32,7 11,8 34,9 27,0 22,1 24 13 41 22 WZW 1012,8 20 46 0,0
20.07.2019 13:00:00 31,8 12,6 32,4 26,4 22,1 22 12 45 24 ZW 1013,3 20 35 0,0
20.07.2019 12:00:00 31,3 13,1 31,9 25,9 22,0 23 12 40 22 ZZW 1012,8 12 60 0,0
20.07.2019 11:00:00 29,1 13,3 28,9 25,7 22,1 21 11 35 19 ZZW 1012,8 4,3 49 0,0
20.07.2019 10:00:00 26,6 15,3 24,1 25,6 22,0 14 8 23 12 ZZW 1013,3 20 60 0,0
20.07.2019 09:00:00 22,1 15,0 22,1 25,8 22,0 11 6 19 11 ZZW 1013,9 20 60 0,0
20.07.2019 08:00:00 20,4 14,3 18,4 26,0 22,0 6 3 11 6 ZZW 1014,0 20 60 0,0
20.07.2019 07:00:00 17,2 13,9 12,6 26,4 22,0 6 3 9 5 Z 1014,4 20 42 0,0
20.07.2019 06:00:00 14,2 12,9 12,2 26,8 22,0 3 2 5 3 Z 1014,4 20 0 0,0
20.07.2019 05:00:00 15,0 13,4 12,9 27,2 22,0 4 2 8 4 ZW 1014,4 20 0 0,0
20.07.2019 04:00:00 15,3 13,7 13,2 27,7 22,0 4 2 6 4 Z 1014,5 20 0 0,0
20.07.2019 03:00:00 15,4 13,6 13,4 28,1 22,0 0 0 3 2 N 1014,7 20 0 0,0
20.07.2019 02:00:00 16,4 13,9 14,2 28,5 22,0 0 0 3 2 N 1014,8 20 0 0,0
20.07.2019 01:00:00 17,8 14,1 14,9 28,9 22,0 0 0 6 3 N 1014,9 20 0 0,0
20.07.2019 00:00:00 18,6 14,9 15,8 29,3 21,9 3 2 7 4 N 1015,1 20 0 0,0
19.07.2019 23:00:00 19,7 15,1 17,5 29,7 21,9 5 3 8 5 N 1014,7 20 0 0,0
19.07.2019 22:00:00 21,2 15,1 18,5 29,9 21,9 2 1 8 5 NW 1014,4 20 0 0,0
19.07.2019 21:00:00 24,7 14,5 24,4 29,9 21,9 6 3 15 8 NO 1013,7 20 39 0,0
19.07.2019 20:00:00 27,3 14,3 29,2 29,8 21,9 8 5 16 9 NO 1013,3 20 60 0,0
19.07.2019 19:00:00 29,2 13,4 32,8 29,5 21,9 5 3 13 7 NNO 1013,2 20 60 0,0
19.07.2019 18:00:00 29,5 12,4 33,2 29,0 21,9 9 5 19 11 N 1013,5 18 58 0,0
19.07.2019 17:00:00 30,3 12,2 35,5 28,3 21,9 9 5 23 12 ZW 1013,6 15 60 0,0
19.07.2019 16:00:00 29,6 12,1 30,6 27,7 21,9 9 5 27 15 WZW 1013,9 9 48 0,0
19.07.2019 15:00:00 29,1 12,1 30,7 27,0 21,9 14 7 32 17 ZW 1014,4 20 44 0,0
19.07.2019 14:00:00 27,8 13,0 30,7 26,4 21,9 16 9 33 18 WZW 1014,7 20 31 0,0
19.07.2019 13:00:00 28,0 12,8 29,8 25,8 21,9 14 8 33 18 ZZW 1014,8 20 40 0,0
19.07.2019 12:00:00 27,4 12,6 28,2 25,3 21,8 15 8 29 16 ZZW 1014,9 18 53 0,0
19.07.2019 11:00:00 26,4 13,2 26,9 25,0 21,8 18 10 31 17 ZZW 1015,3 20 60 0,0
19.07.2019 10:00:00 24,8 13,7 24,8 25,0 21,8 14 8 23 12 ZZW 1015,3 20 57 0,0
19.07.2019 09:00:00 22,8 13,3 19,5 25,1 21,8 15 8 22 12 ZZW 1015,4 19 46 0,0
19.07.2019 08:00:00 18,8 13,2 17,5 25,4 21,8 10 5 15 8 ZZW 1015,4 20 0 0,0
19.07.2019 07:00:00 17,2 13,1 16,1 25,7 21,8 8 4 12 6 ZZW 1015,5 20 0 0,0
19.07.2019 06:00:00 16,5 13,4 15,2 26,1 21,8 6 4 12 6 Z 1015,3 20 0 0,0
19.07.2019 05:00:00 16,9 13,4 13,0 26,5 21,8 7 4 10 5 Z 1015,0 20 0 0,0
19.07.2019 04:00:00 15,2 12,9 13,2 26,8 21,8 2 1 5 3 Z 1015,1 20 0 0,0
19.07.2019 03:00:00 16,3 13,0 14,5 27,2 21,8 0 0 6 3 N 1014,8 20 0 0,0
19.07.2019 02:00:00 17,6 13,5 15,5 27,5 21,8 0 0 11 6 N 1014,6 20 0 0,0
19.07.2019 01:00:00 18,7 12,9 16,7 27,9 21,8 0 0 6 4 N 1014,4 20 0 0,0
19.07.2019 00:00:00 20,9 13,1 19,5 28,1 21,8 5 3 11 6 O 1014,0 20 0 0,0
18.07.2019 23:00:00 21,5 13,4 20,0 28,4 21,8 4 2 9 5 ZO 1013,5 20 0 0,0
18.07.2019 22:00:00 24,0 12,9 23,4 28,6 21,8 5 3 18 10 NNO 1013,1 20 0 0,0
18.07.2019 21:00:00 25,3 10,7 24,8 28,7 21,8 10 5 16 9 W 1012,2 20 0 0,0
18.07.2019 20:00:00 27,1 11,6 27,5 28,7 21,7 9 5 19 10 WNW 1011,5 20 0 0,0
18.07.2019 19:00:00 28,9 11,0 30,3 28,5 21,8 7 4 19 11 NW 1010,7 20 11 0,0
18.07.2019 18:00:00 30,2 8,6 31,5 28,2 21,7 7 4 19 10 ZW 1010,4 20 38 0,0
18.07.2019 17:00:00 29,3 9,4 31,3 27,9 21,8 4 2 15 8 Z 1010,8 20 12 0,0
18.07.2019 16:00:00 29,0 10,2 30,5 27,3 21,7 0 0 17 9 N 1011,3 20 8 0,0
18.07.2019 15:00:00 29,1 10,2 32,6 26,6 21,7 6 4 21 11 ZW 1011,4 20 43 0,0
18.07.2019 14:00:00 28,2 10,4 31,1 25,9 21,7 9 5 21 11 ZO 1011,9 11 28 0,0
18.07.2019 13:00:00 28,7 11,3 30,9 25,2 21,7 4 2 19 10 OZO 1012,2 20 47 0,0
18.07.2019 12:00:00 27,1 11,6 28,5 24,6 21,7 5 3 13 7 WNW 1012,6 20 58 0,0
18.07.2019 11:00:00 24,8 12,1 24,7 24,3 21,7 6 3 11 6 WNW 1012,9 20 60 0,0
18.07.2019 10:00:00 22,1 12,6 21,5 24,3 21,7 0 0 7 4 N 1013,2 20 58 0,0
18.07.2019 09:00:00 18,9 10,7 19,8 24,5 21,7 3 2 8 5 ZZW 1013,5 20 60 0,0
18.07.2019 08:00:00 17,2 11,0 11,8 24,8 21,7 0 0 6 3 N 1013,3 20 49 0,0
18.07.2019 07:00:00 12,2 10,9 10,6 25,2 21,7 0 0 9 5 N 1013,3 19 0 0,0
18.07.2019 06:00:00 12,4 10,5 10,1 25,6 21,6 5 3 8 5 Z 1013,1 20 0 0,0
18.07.2019 05:00:00 13,6 10,8 12,4 26,0 21,6 3 1 9 5 ONO 1012,9 20 0 0,0
18.07.2019 04:00:00 14,8 10,6 13,5 26,5 21,6 6 4 13 7 ZZW 1012,7 20 0 0,0
18.07.2019 03:00:00 17,1 11,1 13,6 26,9 21,6 7 4 12 7 Z 1012,7 20 0 0,0
18.07.2019 02:00:00 15,9 12,6 13,3 27,4 21,6 5 3 9 5 ZZO 1012,8 20 0 0,0
18.07.2019 01:00:00 16,0 12,9 12,4 27,8 21,6 4 2 7 4 OZO 1012,6 20 0 0,0

tt = temperatuur
td = dauwpunt
tt 5cm = temperatuur 5cm
tt -20cm = temperatuur -20cm
tt -100cm = temperatuur -100cm
ff = windsnelheid
fx = windstoten
dd = windrichting
ppp = luchtdruk
vv = zicht
sd = Zonneschijnduur
rr = neerslag

Weerstations in de omgeving